Weather History for KFKS - November, 2013

Change the Weather History Date:

Tuesday, November 12, 2013

  Actual Average (KTVC) Record (KTVC)
Temperature  
Mean Temperature 30 °F 39 °F  
Max Temperature 31 °F 46 °F 69 °F (1911)
Min Temperature 28 °F 32 °F 10 °F (1950)
Degree Days  
Heating Degree Days 36 26  
Month to date heating degree days 291  
Since 1 July heating degree days 1078  
Moisture  
Dew Point 19 °F    
Average Humidity 63    
Maximum Humidity 86    
Minimum Humidity 55    
Precipitation  
Precipitation 0.00 in 0.09 in 0.85 in (1982)
Month to date precipitation 1.11  
Year to date precipitation 28.97  
Sea Level Pressure  
Sea Level Pressure 30.51 in    
Wind  
Wind Speed 11 mph (NW)    
Max Wind Speed 16 mph    
Max Gust Speed 26 mph    
Visibility 10 miles    
Events Snow    
T = Trace of Precipitation, MM = Missing Value Source: NWS Daily Summary

Daily Weather History Graph

Daily Weather History Graph

Search for Another Location

Airport or City:

Trip Planner

Search our weather history database for the weather conditions in past years. The results will help you decide how hot, cold, wet, or windy it might be!

Date:

Astronomy

Nov. 12, 2013 Rise Set
Actual Time 7:37 AM EST 5:19 PM EST
Civil Twilight 7:06 AM EST 5:51 PM EST
Nautical Twilight 6:31 AM EST 6:26 PM EST
Astronomical Twilight 5:56 AM EST 7:00 PM EST
Moon 2:44 PM EST (11/12) 2:14 AM EST (11/12)
Length of Visible Light 10h 44m
Length of Day
9h 41m
Waxing Gibbous, 76% of the Moon is Illuminated
Nov 12
Waxing Gibbous
Nov 17
Full
Nov 25
Last Quarter
Dec 2
New
Dec 9
First Quarter

Hourly Weather History & Observations

Time (EST) Temp. Windchill Dew Point Humidity Pressure Visibility Wind Dir Wind Speed Gust Speed Precip Events Conditions
12:15 AM 30.6 °F 20.2 °F 23.7 °F 76% 30.40 in 10.0 mi NNW 13.8 mph 21.9 mph N/A Snow Light Snow
12:35 AM 28.9 °F 19.8 °F 25.3 °F 86% 30.41 in 1.0 mi NNW 10.4 mph 23.0 mph N/A Snow Light Snow
12:55 AM 30.0 °F 21.1 °F 25.5 °F 83% 30.42 in 3.0 mi NNW 10.4 mph 24.2 mph N/A Snow Light Snow
1:15 AM 30.0 °F 19.1 °F 25.5 °F 83% 30.43 in 5.0 mi NNW 15.0 mph 26.5 mph N/A Snow Light Snow
1:35 AM 30.0 °F 21.7 °F 24.4 °F 80% 30.42 in 5.0 mi North 9.2 mph - N/A Snow Light Snow
1:56 AM 31.5 °F 23.5 °F 22.6 °F 70% 30.42 in 10.0 mi NNW 9.2 mph 24.2 mph N/A Snow Light Snow
2:16 AM 31.5 °F 21.4 °F 22.3 °F 69% 30.43 in 10.0 mi NNW 13.8 mph 24.2 mph N/A   Overcast
2:36 AM 31.8 °F 21.0 °F 22.3 °F 68% 30.44 in 10.0 mi NNW 16.1 mph 24.2 mph N/A   Overcast
2:56 AM 31.6 °F 22.6 °F 22.1 °F 68% 30.45 in 10.0 mi NNW 11.5 mph 21.9 mph N/A   Overcast
3:11 AM 31.5 °F 23.5 °F 21.0 °F 65% 30.46 in 10.0 mi NNW 9.2 mph 19.6 mph N/A   Overcast
3:31 AM 31.1 °F 22.4 °F 21.7 °F 68% 30.46 in 10.0 mi NNW 10.4 mph 19.6 mph N/A   Overcast
3:51 AM 31.1 °F 23.7 °F 21.2 °F 67% 30.47 in 10.0 mi NNW 8.1 mph 23.0 mph N/A   Overcast
4:11 AM 30.9 °F 20.7 °F 20.3 °F 65% 30.48 in 10.0 mi NNW 13.8 mph 18.4 mph N/A   Overcast
4:31 AM 30.7 °F 20.9 °F 18.3 °F 60% 30.49 in 10.0 mi NNW 12.7 mph 20.7 mph N/A   Overcast
4:51 AM 30.7 °F 20.9 °F 19.8 °F 64% 30.50 in 10.0 mi NNW 12.7 mph 20.7 mph N/A   Overcast
5:11 AM 30.6 °F 21.2 °F 18.0 °F 60% 30.51 in 10.0 mi North 11.5 mph 26.5 mph N/A   Overcast
5:32 AM 30.2 °F 21.9 °F 19.0 °F 63% 30.51 in 10.0 mi North 9.2 mph 17.3 mph N/A   Overcast
5:52 AM 30.0 °F 21.7 °F 18.9 °F 63% 30.51 in 10.0 mi NW 9.2 mph 18.4 mph N/A   Overcast
6:12 AM 30.0 °F 20.0 °F 19.2 °F 64% 30.53 in 10.0 mi North 12.7 mph 18.4 mph N/A   Overcast
6:32 AM 30.0 °F 19.5 °F 19.9 °F 66% 30.53 in 10.0 mi NNW 13.8 mph 18.4 mph N/A   Overcast
6:52 AM 29.7 °F 19.6 °F 19.0 °F 65% 30.53 in 10.0 mi NNW 12.7 mph 18.4 mph N/A   Overcast
7:12 AM 29.3 °F 20.8 °F 18.7 °F 65% 30.53 in 10.0 mi North 9.2 mph 21.9 mph N/A   Overcast
7:32 AM 28.8 °F 17.9 °F 19.0 °F 67% 30.54 in 10.0 mi NW 13.8 mph 19.6 mph N/A   Overcast
7:52 AM 28.4 °F 17.5 °F 17.6 °F 64% 30.55 in 10.0 mi NNW 13.8 mph 20.7 mph N/A   Overcast
8:13 AM 28.6 °F 17.7 °F 18.0 °F 64% 30.56 in 10.0 mi NNW 13.8 mph 23.0 mph N/A   Mostly Cloudy
8:33 AM 28.6 °F 19.9 °F 17.4 °F 63% 30.56 in 10.0 mi NNW 9.2 mph 20.7 mph N/A   Mostly Cloudy
8:53 AM 28.8 °F 19.0 °F 18.0 °F 64% 30.57 in 10.0 mi NW 11.5 mph 17.3 mph N/A   Mostly Cloudy
9:13 AM 28.8 °F 17.9 °F 17.1 °F 62% 30.58 in 10.0 mi NW 13.8 mph 21.9 mph N/A   Mostly Cloudy
9:33 AM 28.9 °F 19.8 °F 16.5 °F 60% 30.58 in 10.0 mi NNW 10.4 mph - N/A   Overcast
9:53 AM 29.1 °F 18.4 °F 17.1 °F 61% 30.58 in 10.0 mi NNW 13.8 mph 18.4 mph N/A   Overcast
10:13 AM 29.1 °F 20.0 °F 15.8 °F 58% 30.58 in 10.0 mi NW 10.4 mph 18.4 mph N/A   Overcast
10:34 AM 28.8 °F 19.5 °F 17.4 °F 63% 30.58 in 10.0 mi WNW 10.4 mph 19.6 mph N/A   Overcast
10:54 AM 29.3 °F 20.8 °F 16.3 °F 58% 30.58 in 10.0 mi NNW 9.2 mph - N/A   Overcast
11:14 AM 29.5 °F 22.5 °F 16.7 °F 59% 30.58 in 10.0 mi NNW 6.9 mph - N/A   Overcast
11:34 AM 29.7 °F 19.1 °F 15.8 °F 56% 30.58 in 10.0 mi NW 13.8 mph 20.7 mph N/A   Overcast
11:54 AM 29.7 °F 19.6 °F 16.0 °F 57% 30.58 in 10.0 mi NW 12.7 mph 19.6 mph N/A   Mostly Cloudy
12:14 PM 29.8 °F 21.5 °F 16.3 °F 57% 30.57 in 10.0 mi NNW 9.2 mph - N/A   Overcast
12:34 PM 29.8 °F 20.9 °F 15.6 °F 56% 30.56 in 10.0 mi NNW 10.4 mph 16.1 mph N/A   Overcast
12:54 PM 29.8 °F 22.2 °F 15.3 °F 55% 30.56 in 10.0 mi NW 8.1 mph 16.1 mph N/A   Overcast
1:14 PM 29.7 °F 22.0 °F 18.3 °F 63% 30.56 in 10.0 mi NNW 8.1 mph - N/A   Overcast
1:34 PM 30.2 °F 22.6 °F 18.0 °F 60% 30.55 in 10.0 mi NW 8.1 mph - N/A   Overcast
1:54 PM 29.8 °F 19.8 °F 20.8 °F 69% 30.55 in 10.0 mi NW 12.7 mph - N/A Snow Light Snow
2:14 PM 30.0 °F 20.0 °F 20.3 °F 67% 30.55 in 10.0 mi WNW 12.7 mph 18.4 mph N/A Snow Light Snow
2:35 PM 30.2 °F 21.3 °F 19.8 °F 65% 30.55 in 10.0 mi NW 10.4 mph - N/A   Overcast
2:55 PM 30.0 °F 22.4 °F 19.0 °F 64% 30.54 in 10.0 mi WNW 8.1 mph - N/A   Overcast
3:15 PM 30.2 °F 22.6 °F 18.3 °F 61% 30.54 in 10.0 mi WNW 8.1 mph - N/A   Overcast
3:35 PM 30.7 °F 22.6 °F 18.7 °F 61% 30.53 in 10.0 mi WNW 9.2 mph - N/A   Overcast
3:55 PM 30.2 °F 20.8 °F 17.2 °F 59% 30.53 in 10.0 mi WNW 11.5 mph 16.1 mph N/A   Mostly Cloudy
4:15 PM 29.8 °F 21.5 °F 17.2 °F 59% 30.53 in 10.0 mi NW 9.2 mph - N/A   Mostly Cloudy
4:35 PM 30.0 °F 25.2 °F 17.4 °F 59% 30.52 in 10.0 mi WNW 4.6 mph - N/A   Overcast
4:56 PM 30.2 °F 21.3 °F 18.5 °F 62% 30.52 in 10.0 mi WNW 10.4 mph - N/A   Overcast
5:16 PM 30.0 °F 21.7 °F 18.5 °F 62% 30.53 in 10.0 mi WNW 9.2 mph - N/A   Overcast
5:36 PM 30.0 °F 21.1 °F 18.5 °F 62% 30.53 in 10.0 mi WNW 10.4 mph - N/A   Overcast
5:56 PM 30.0 °F 21.1 °F 18.5 °F 62% 30.53 in 10.0 mi WNW 10.4 mph - N/A   Overcast
6:11 PM 30.2 °F 24.3 °F 18.5 °F 62% 30.52 in 10.0 mi West 5.8 mph - N/A   Overcast
6:31 PM 30.2 °F 23.4 °F 18.5 °F 62% 30.51 in 10.0 mi West 6.9 mph - N/A   Mostly Cloudy
6:51 PM 30.2 °F 23.4 °F 18.1 °F 61% 30.51 in 10.0 mi WNW 6.9 mph - N/A   Mostly Cloudy
7:11 PM 30.4 °F 24.5 °F 18.3 °F 61% 30.51 in 10.0 mi West 5.8 mph - N/A   Mostly Cloudy
7:31 PM 30.2 °F 24.3 °F 17.4 °F 59% 30.50 in 10.0 mi West 5.8 mph - N/A   Scattered Clouds
7:51 PM 30.9 °F 22.2 °F 17.1 °F 57% 30.50 in 10.0 mi West 10.4 mph - N/A   Scattered Clouds
8:11 PM 30.7 °F 24.9 °F 17.6 °F 58% 30.49 in 10.0 mi West 5.8 mph - N/A   Mostly Cloudy
8:31 PM 31.1 °F 24.5 °F 18.5 °F 60% 30.49 in 10.0 mi West 6.9 mph - N/A   Mostly Cloudy
8:52 PM 31.1 °F 23.7 °F 17.6 °F 57% 30.48 in 10.0 mi West 8.1 mph - N/A   Scattered Clouds
9:12 PM 31.1 °F 22.4 °F 17.6 °F 57% 30.49 in 10.0 mi West 10.4 mph 18.4 mph N/A   Scattered Clouds
9:32 PM 31.3 °F 23.3 °F 17.4 °F 57% 30.48 in 10.0 mi West 9.2 mph 16.1 mph N/A   Scattered Clouds
9:52 PM 31.1 °F 23.7 °F 17.4 °F 57% 30.48 in 10.0 mi West 8.1 mph 17.3 mph N/A   Scattered Clouds
10:12 PM 30.9 °F 21.7 °F 17.2 °F 57% 30.47 in 10.0 mi WNW 11.5 mph 18.4 mph N/A   Scattered Clouds
10:32 PM 30.9 °F 22.8 °F 17.8 °F 58% 30.47 in 10.0 mi WNW 9.2 mph - N/A   Scattered Clouds
10:52 PM 30.7 °F 23.3 °F 18.1 °F 60% 30.45 in 10.0 mi West 8.1 mph - N/A   Clear
11:12 PM 30.7 °F 24.1 °F 18.3 °F 60% 30.45 in 10.0 mi West 6.9 mph - N/A   Clear
11:33 PM 30.9 °F 22.8 °F 18.7 °F 61% 30.45 in 10.0 mi West 9.2 mph - N/A   Clear
11:53 PM 31.1 °F 22.4 °F 18.7 °F 60% 30.45 in 10.0 mi West 10.4 mph - N/A   Clear